Tracking 19817 objects as of 19-Aug-2019
HD Live streaming from Space Station
objects crossing your sky now

COSMOS 2251 DEB

Track COSMOS 2251 DEB now!
10-day predictions


NORAD ID: 34037
Int'l Code: 1993-036HY
Perigee: 761.9 km
Apogee: 847.1 km
Inclination: 74.1 °
Period: 100.8 minutes
Semi major axis: 7175 km
RCS: 0.0548 m2 (small)
Launch date: June 16, 1993
Source: Commonwealth of Independent States (former USSR) (CIS)
Launch site: PLESETSK MISSILE AND SPACE COMPLEX (PKMTR)

Note: This is SATELLITE DEBRIS
aabbcc
Your satellite tracking list
Your tracking list is empty




NASA's NSSDC Master Catalog

Two Line Element Set (TLE):
1 34037U 93036HY  19230.57863542 +.00000165 +00000-0 +74743-4 0  9994
2 34037 074.0532 283.9052 0059365 183.1379 176.9407 14.28330014547342
Source of the keplerian elements: AFSPC